Location: Beddau
(51.5575°N, 3.3561°W)
Time: 12:24:09
(UTC+00:00)

Aureole 2 Rocket - Pass Details

Date: 03 March 2021
Orbit: 275 x 342 km, 73.9° (Epoch: 16 April)

Event Time Altitude Azimuth Distance (km) Brightness Sun altitude
Rises 18:59:51 0° 333° (NNW) 1,995 6.1 -10.5°
Reaches altitude 10° 19:01:47 10° 331° (NNW) 1,152 4.9 -10.8°
Maximum altitude 19:04:15 69° 248° (WSW) 311 1.8 -11.2°
Drops below altitude 10° 19:06:39 10° 163° (SSE) 1,113 4.2 -11.5°
Enters shadow 19:07:39 - 162° (SSE) 1,548 4.9 -11.7°
